Grand Forks AFB, ND

2:21 PM CDT on July 24, 2017 (GMT -0500)
Grand Forks Air Force Base

Weather History for KRDR - May, 2013

Change the Weather History Date:

Friday, May 17, 2013

  Actual Average Record
Temperature  
Mean Temperature 62 °F -  
Max Temperature 72 °F 62 °F 88 °F (2012)
Min Temperature 52 °F 40 °F 26 °F (2002)
Degree Days  
Heating Degree Days 3    
Growing Degree Days 12 (Base 50)    
Moisture  
Dew Point 49 °F    
Average Humidity 67    
Maximum Humidity 100    
Minimum Humidity 39    
Precipitation  
Precipitation 0.00 in - - ()
Sea Level Pressure  
Sea Level Pressure 29.93 in    
Wind  
Wind Speed 10 mph (ESE)    
Max Wind Speed 18 mph    
Max Gust Speed 22 mph    
Visibility 10 miles    
Events      
Averages and records for this station are not official NWS values.
T = Trace of Precipitation, MM = Missing Value Source: NWS Daily Summary

Daily Weather History Graph

Daily Weather History Graph

Search for Another Location

Airport or City:

Trip Planner

Search our weather history database for the weather conditions in past years. The results will help you decide how hot, cold, wet, or windy it might be!

Date:

Astronomy

May. 17, 2013 Rise Set
Actual Time 5:48 AM CDT 9:04 PM CDT
Civil Twilight 5:10 AM CDT 9:42 PM CDT
Nautical Twilight 4:21 AM CDT 10:31 PM CDT
Astronomical Twilight 3:19 AM CDT 11:34 PM CDT
Moon 12:35 PM CDT (5/17) 1:45 AM CDT (5/17)
Length of Visible Light 16h 31m
Length of Day
15h 16m
Waxing Crescent, 45% of the Moon is Illuminated
May 17
Waxing Crescent
May 17
First Quarter
May 24
Full
May 31
Last Quarter
Jun 8
New

Hourly Weather History & Observations

Time (CDT) Temp. Dew Point Humidity Pressure Visibility Wind Dir Wind Speed Gust Speed Precip Events Conditions
12:27 AM 53.6 °F 53.6 °F 100% 29.95 in 10.0 mi NE 8.1 mph - N/A   Light Drizzle
12:58 AM 54.3 °F 53.2 °F 96% 29.96 in 10.0 mi ENE 9.2 mph - N/A   Light Drizzle
1:13 AM 53.6 °F 53.6 °F 100% 29.94 in 10.0 mi NE 10.4 mph - N/A   Mostly Cloudy
1:58 AM 54.3 °F 52.2 °F 92% 29.97 in 10.0 mi East 8.1 mph - N/A   Overcast
2:58 AM 54.0 °F 51.8 °F 92% 29.96 in 10.0 mi East 8.1 mph - N/A   Overcast
3:58 AM 53.2 °F 51.1 °F 92% 29.97 in 10.0 mi East 10.4 mph - N/A   Overcast
4:58 AM 52.9 °F 49.5 °F 88% 29.96 in 10.0 mi East 9.2 mph - N/A   Overcast
5:58 AM 54.0 °F 47.5 °F 79% 29.96 in 10.0 mi East 11.5 mph - N/A   Overcast
6:58 AM 54.3 °F 46.2 °F 74% 29.96 in 10.0 mi East 11.5 mph - N/A   Overcast
7:58 AM 55.2 °F 44.6 °F 67% 29.96 in 10.0 mi East 8.1 mph - N/A   Overcast
8:58 AM 57.7 °F 44.4 °F 61% 29.96 in 10.0 mi ESE 12.7 mph - N/A   Mostly Cloudy
9:58 AM 60.8 °F 42.6 °F 51% 29.95 in 10.0 mi SE 18.4 mph 21.9 mph N/A   Scattered Clouds
10:58 AM 64.2 °F 42.1 °F 44% 29.95 in 10.0 mi SE 13.8 mph - N/A   Clear
11:58 AM 67.5 °F 43.3 °F 42% 29.94 in 10.0 mi SE 12.7 mph - N/A   Clear
12:58 PM 69.8 °F 44.2 °F 40% 29.93 in 10.0 mi ESE 10.4 mph - N/A   Partly Cloudy
1:58 PM 70.9 °F 44.6 °F 39% 29.93 in 10.0 mi ESE 9.2 mph - N/A   Clear
2:58 PM 71.8 °F 46.4 °F 40% 29.91 in 10.0 mi East 5.8 mph - N/A   Scattered Clouds
3:58 PM 71.6 °F 47.8 °F 43% 29.89 in 10.0 mi ENE 10.4 mph - N/A   Overcast
4:58 PM 72.1 °F 51.6 °F 48% 29.89 in 10.0 mi ESE 4.6 mph - N/A   Overcast
5:58 PM 71.4 °F 54.3 °F 55% 29.88 in 10.0 mi SE 4.6 mph - N/A   Overcast
6:58 PM 70.5 °F 53.6 °F 55% 29.88 in 10.0 mi SSE 10.4 mph - N/A   Overcast
7:58 PM 69.3 °F 52.3 °F 55% 29.87 in 10.0 mi SE 8.1 mph - N/A   Mostly Cloudy
8:58 PM 67.5 °F 52.0 °F 58% 29.87 in 10.0 mi SE 9.2 mph - N/A   Scattered Clouds
9:58 PM 63.3 °F 52.5 °F 68% 29.89 in 10.0 mi SSE 12.7 mph - N/A   Clear
10:58 PM 61.2 °F 52.9 °F 74% 29.91 in 10.0 mi South 8.1 mph - N/A   Clear
11:58 PM 59.0 °F 52.9 °F 80% 29.89 in 10.0 mi SSE 6.9 mph - N/A   Clear